Year,Month,Day,Hour,Minute,Value (Times are PST for temperature in C)
2018,06,16,00,00,13.90
2018,06,16,00,01,13.90
2018,06,16,00,02,13.90
2018,06,16,00,03,13.80
2018,06,16,00,04,13.80
2018,06,16,00,05,13.80
2018,06,16,00,06,13.80
2018,06,16,00,07,13.80
2018,06,16,00,08,13.80
2018,06,16,00,09,13.80
2018,06,16,00,10,13.70
2018,06,16,00,11,13.70
2018,06,16,00,12,13.70
2018,06,16,00,13,13.70
2018,06,16,00,14,13.70
2018,06,16,00,15,13.70
2018,06,16,00,16,13.70
2018,06,16,00,17,13.70
2018,06,16,00,18,13.70
2018,06,16,00,19,13.70
2018,06,16,00,20,13.80
2018,06,16,00,21,13.80
2018,06,16,00,22,13.80
2018,06,16,00,23,13.80
2018,06,16,00,24,13.80
2018,06,16,00,25,13.80
2018,06,16,00,26,13.80
2018,06,16,00,27,13.80
2018,06,16,00,28,13.80
2018,06,16,00,29,13.80
2018,06,16,00,30,13.80
2018,06,16,00,31,13.70
2018,06,16,00,32,13.70
2018,06,16,00,33,13.70
2018,06,16,00,34,13.70
2018,06,16,00,35,13.70
2018,06,16,00,36,13.70
2018,06,16,00,37,13.70
2018,06,16,00,38,13.70
2018,06,16,00,39,13.70
2018,06,16,00,40,13.70
2018,06,16,00,41,13.70
2018,06,16,00,42,13.70
2018,06,16,00,43,13.70
2018,06,16,00,44,13.70
2018,06,16,00,45,13.70
2018,06,16,00,46,13.70
2018,06,16,00,47,13.70
2018,06,16,00,48,13.70
2018,06,16,00,49,13.70
2018,06,16,00,50,13.80
2018,06,16,00,51,13.80
2018,06,16,00,52,13.80
2018,06,16,00,53,13.80
2018,06,16,00,54,13.80
2018,06,16,00,55,13.80
2018,06,16,00,56,13.80
2018,06,16,00,57,13.80
2018,06,16,00,58,13.80
2018,06,16,00,59,13.80
2018,06,16,01,00,13.80
2018,06,16,01,01,13.80
2018,06,16,01,02,13.80
2018,06,16,01,03,13.80
2018,06,16,01,04,13.80
2018,06,16,01,05,13.80
2018,06,16,01,06,13.80
2018,06,16,01,07,13.80
2018,06,16,01,08,13.80
2018,06,16,01,09,13.80
2018,06,16,01,10,13.80
2018,06,16,01,11,13.80
2018,06,16,01,12,13.80
2018,06,16,01,13,13.80
2018,06,16,01,14,13.80
2018,06,16,01,15,13.80
2018,06,16,01,16,13.80
2018,06,16,01,17,13.80
2018,06,16,01,18,13.80
2018,06,16,01,19,13.80
2018,06,16,01,20,13.80
2018,06,16,01,21,13.80
2018,06,16,01,22,13.80
2018,06,16,01,23,13.70
2018,06,16,01,24,13.80
2018,06,16,01,25,13.80
2018,06,16,01,26,13.80
2018,06,16,01,27,13.80
2018,06,16,01,28,13.80
2018,06,16,01,29,13.80
2018,06,16,01,30,13.80
2018,06,16,01,31,13.80
2018,06,16,01,32,13.80
2018,06,16,01,33,13.80
2018,06,16,01,34,13.80
2018,06,16,01,35,13.80
2018,06,16,01,36,13.80
2018,06,16,01,37,13.80
2018,06,16,01,38,13.80
2018,06,16,01,39,13.80
2018,06,16,01,40,13.80
2018,06,16,01,41,13.80
2018,06,16,01,42,13.80
2018,06,16,01,43,13.70
2018,06,16,01,44,13.70
2018,06,16,01,45,13.70
2018,06,16,01,46,13.70
2018,06,16,01,47,13.70
2018,06,16,01,48,13.70
2018,06,16,01,49,13.70
2018,06,16,01,50,13.70
2018,06,16,01,51,13.70
2018,06,16,01,52,13.70
2018,06,16,01,53,13.70
2018,06,16,01,54,13.70
2018,06,16,01,55,13.70
2018,06,16,01,56,13.70
2018,06,16,01,57,13.70
2018,06,16,01,58,13.60
2018,06,16,01,59,13.60
2018,06,16,02,00,13.60
2018,06,16,02,01,13.60
2018,06,16,02,02,13.60
2018,06,16,02,03,13.60
2018,06,16,02,04,13.60
2018,06,16,02,05,13.60
2018,06,16,02,06,13.60
2018,06,16,02,07,13.60
2018,06,16,02,08,13.60
2018,06,16,02,09,13.60
2018,06,16,02,10,13.60
2018,06,16,02,11,13.60
2018,06,16,02,12,13.60
2018,06,16,02,13,13.60
2018,06,16,02,14,13.60
2018,06,16,02,15,13.60
2018,06,16,02,16,13.70
2018,06,16,02,17,13.60
2018,06,16,02,18,13.60
2018,06,16,02,19,13.60
2018,06,16,02,20,13.60
2018,06,16,02,21,13.60
2018,06,16,02,22,13.60
2018,06,16,02,23,13.60
2018,06,16,02,24,13.60
2018,06,16,02,25,13.60
2018,06,16,02,26,13.60
2018,06,16,02,27,13.60
2018,06,16,02,28,13.60
2018,06,16,02,29,13.60
2018,06,16,02,30,13.60
2018,06,16,02,31,13.60
2018,06,16,02,32,13.60
2018,06,16,02,33,13.60
2018,06,16,02,34,13.60
2018,06,16,02,35,13.60
2018,06,16,02,36,13.60
2018,06,16,02,37,13.70
2018,06,16,02,38,13.70
2018,06,16,02,39,13.70
2018,06,16,02,40,13.70
2018,06,16,02,41,13.70
2018,06,16,02,42,13.70
2018,06,16,02,43,13.70
2018,06,16,02,44,13.70
2018,06,16,02,45,13.70
2018,06,16,02,46,13.70
2018,06,16,02,47,13.70
2018,06,16,02,48,13.70
2018,06,16,02,49,13.70
2018,06,16,02,50,13.70
2018,06,16,02,51,13.70
2018,06,16,02,52,13.80
2018,06,16,02,53,13.70
2018,06,16,02,54,13.70
2018,06,16,02,55,13.70
2018,06,16,02,56,13.80
2018,06,16,02,57,13.80
2018,06,16,02,58,13.80
2018,06,16,02,59,13.80
2018,06,16,03,00,13.80
2018,06,16,03,01,13.80
2018,06,16,03,02,13.80
2018,06,16,03,03,13.80
2018,06,16,03,04,13.80
2018,06,16,03,05,13.80
2018,06,16,03,06,13.80
2018,06,16,03,07,13.80
2018,06,16,03,08,13.80
2018,06,16,03,09,13.80
2018,06,16,03,10,13.80
2018,06,16,03,11,13.70
2018,06,16,03,12,13.70
2018,06,16,03,13,13.70
2018,06,16,03,14,13.60
2018,06,16,03,15,13.60
2018,06,16,03,16,13.60
2018,06,16,03,17,13.60
2018,06,16,03,18,13.60
2018,06,16,03,19,13.60
2018,06,16,03,20,13.60
2018,06,16,03,21,13.60
2018,06,16,03,22,13.60
2018,06,16,03,23,13.60
2018,06,16,03,24,13.60
2018,06,16,03,25,13.60
2018,06,16,03,26,13.60
2018,06,16,03,27,13.60
2018,06,16,03,28,13.60
2018,06,16,03,29,13.60
2018,06,16,03,30,13.50
2018,06,16,03,31,13.50
2018,06,16,03,32,13.50
2018,06,16,03,33,13.50
2018,06,16,03,34,13.50
2018,06,16,03,35,13.50
2018,06,16,03,36,13.50
2018,06,16,03,37,13.40
2018,06,16,03,38,13.40
2018,06,16,03,39,13.40
2018,06,16,03,40,13.40
2018,06,16,03,41,13.40
2018,06,16,03,42,13.40
2018,06,16,03,43,13.30
2018,06,16,03,44,13.30
2018,06,16,03,45,13.30
2018,06,16,03,46,13.30
2018,06,16,03,47,13.30
2018,06,16,03,48,13.30
2018,06,16,03,49,13.30
2018,06,16,03,50,13.30
2018,06,16,03,51,13.20
2018,06,16,03,52,13.20
2018,06,16,03,53,13.20
2018,06,16,03,54,13.20
2018,06,16,03,55,13.20
2018,06,16,03,56,13.20
2018,06,16,03,57,13.20
2018,06,16,03,58,13.20
2018,06,16,03,59,13.20
2018,06,16,04,00,13.10
2018,06,16,04,01,13.10
2018,06,16,04,02,13.10
2018,06,16,04,03,13.10
2018,06,16,04,04,13.10
2018,06,16,04,05,13.10
2018,06,16,04,06,13.00
2018,06,16,04,07,13.00
2018,06,16,04,08,13.00
2018,06,16,04,09,13.00
2018,06,16,04,10,12.90
2018,06,16,04,11,12.90
2018,06,16,04,12,12.90
2018,06,16,04,13,12.90
2018,06,16,04,14,12.90
2018,06,16,04,15,12.90
2018,06,16,04,16,12.90
2018,06,16,04,17,12.90
2018,06,16,04,18,12.80
2018,06,16,04,19,12.80
2018,06,16,04,20,12.80
2018,06,16,04,21,12.80
2018,06,16,04,22,12.80
2018,06,16,04,23,12.80
2018,06,16,04,24,12.80
2018,06,16,04,25,12.80
2018,06,16,04,26,12.80
2018,06,16,04,27,12.70
2018,06,16,04,28,12.70
2018,06,16,04,29,12.70
2018,06,16,04,30,12.70
2018,06,16,04,31,12.70
2018,06,16,04,32,12.70
2018,06,16,04,33,12.70
2018,06,16,04,34,12.70
2018,06,16,04,35,12.70
2018,06,16,04,36,12.70
2018,06,16,04,37,12.70
2018,06,16,04,38,12.70
2018,06,16,04,39,12.70
2018,06,16,04,40,12.60
2018,06,16,04,41,12.60
2018,06,16,04,42,12.60
2018,06,16,04,43,12.60
2018,06,16,04,44,12.60
2018,06,16,04,45,12.60
2018,06,16,04,46,12.60
2018,06,16,04,47,12.60
2018,06,16,04,48,12.50
2018,06,16,04,49,12.50
2018,06,16,04,50,12.50
2018,06,16,04,51,12.50
2018,06,16,04,52,12.40
2018,06,16,04,53,12.40
2018,06,16,04,54,12.40
2018,06,16,04,55,12.40
2018,06,16,04,56,12.40
2018,06,16,04,57,12.40
2018,06,16,04,58,12.30
2018,06,16,04,59,12.30
2018,06,16,05,00,12.30
2018,06,16,05,01,12.30
2018,06,16,05,02,12.30
2018,06,16,05,03,12.30
2018,06,16,05,04,12.30
2018,06,16,05,05,12.30
2018,06,16,05,06,12.30
2018,06,16,05,07,12.20
2018,06,16,05,08,12.20
2018,06,16,05,09,12.20
2018,06,16,05,10,12.20
2018,06,16,05,11,12.20
2018,06,16,05,12,12.20
2018,06,16,05,13,12.20
2018,06,16,05,14,12.20
2018,06,16,05,15,12.10
2018,06,16,05,16,12.10
2018,06,16,05,17,12.10
2018,06,16,05,18,12.10
2018,06,16,05,19,12.10
2018,06,16,05,20,12.10
2018,06,16,05,21,12.10
2018,06,16,05,22,12.10
2018,06,16,05,23,12.10
2018,06,16,05,24,12.10
2018,06,16,05,25,12.10
2018,06,16,05,26,12.10
2018,06,16,05,27,12.10
2018,06,16,05,28,12.10
2018,06,16,05,29,12.10
2018,06,16,05,30,12.10
2018,06,16,05,31,12.10
2018,06,16,05,32,12.10
2018,06,16,05,33,12.10
2018,06,16,05,34,12.10
2018,06,16,05,35,12.10
2018,06,16,05,36,12.10
2018,06,16,05,37,12.10
2018,06,16,05,38,12.10
2018,06,16,05,39,12.10
2018,06,16,05,40,12.10
2018,06,16,05,41,12.10
2018,06,16,05,42,12.10
2018,06,16,05,43,12.10
2018,06,16,05,44,12.10
2018,06,16,05,45,12.10
2018,06,16,05,46,12.10
2018,06,16,05,47,12.10
2018,06,16,05,48,12.10
2018,06,16,05,49,12.10
2018,06,16,05,50,12.10
2018,06,16,05,51,12.10
2018,06,16,05,52,12.10
2018,06,16,05,53,12.10
2018,06,16,05,54,12.10
2018,06,16,05,55,12.10
2018,06,16,05,56,12.10
2018,06,16,05,57,12.10
2018,06,16,05,58,12.10
2018,06,16,05,59,12.10
2018,06,16,06,00,12.10
2018,06,16,06,01,12.10
2018,06,16,06,02,12.10
2018,06,16,06,03,12.10
2018,06,16,06,04,12.10
2018,06,16,06,05,12.10
2018,06,16,06,06,12.20
2018,06,16,06,07,12.20
2018,06,16,06,08,12.20
2018,06,16,06,09,12.20
2018,06,16,06,10,12.20
2018,06,16,06,11,12.20
2018,06,16,06,12,12.20
2018,06,16,06,13,12.20
2018,06,16,06,14,12.20
2018,06,16,06,15,12.20
2018,06,16,06,16,12.20
2018,06,16,06,17,12.20
2018,06,16,06,18,12.20
2018,06,16,06,19,12.20
2018,06,16,06,20,12.30
2018,06,16,06,21,12.30
2018,06,16,06,22,12.30
2018,06,16,06,23,12.30
2018,06,16,06,24,12.30
2018,06,16,06,25,12.30
2018,06,16,06,26,12.30
2018,06,16,06,27,12.30
2018,06,16,06,28,12.30
2018,06,16,06,29,12.30
2018,06,16,06,30,12.30
2018,06,16,06,31,12.30
2018,06,16,06,32,12.30
2018,06,16,06,33,12.30
2018,06,16,06,34,12.30
2018,06,16,06,35,12.30
2018,06,16,06,36,12.30
2018,06,16,06,37,12.30
2018,06,16,06,38,12.30
2018,06,16,06,39,12.30
2018,06,16,06,40,12.30
2018,06,16,06,41,12.30
2018,06,16,06,42,12.30
2018,06,16,06,43,12.30
2018,06,16,06,44,12.30
2018,06,16,06,45,12.30
2018,06,16,06,46,12.30
2018,06,16,06,47,12.30
2018,06,16,06,48,12.40
2018,06,16,06,49,12.40
2018,06,16,06,50,12.30
2018,06,16,06,51,12.40
2018,06,16,06,52,12.40
2018,06,16,06,53,12.40
2018,06,16,06,54,12.40
2018,06,16,06,55,12.40
2018,06,16,06,56,12.40
2018,06,16,06,57,12.50
2018,06,16,06,58,12.50
2018,06,16,06,59,12.60
2018,06,16,07,00,12.60
2018,06,16,07,01,12.70
2018,06,16,07,02,12.70
2018,06,16,07,03,12.80
2018,06,16,07,04,12.80
2018,06,16,07,05,12.90
2018,06,16,07,06,12.90
2018,06,16,07,07,12.90
2018,06,16,07,08,12.90
2018,06,16,07,09,12.90
2018,06,16,07,10,13.00
2018,06,16,07,11,13.00
2018,06,16,07,12,13.00
2018,06,16,07,13,13.10
2018,06,16,07,14,13.10
2018,06,16,07,15,13.20
2018,06,16,07,16,13.20
2018,06,16,07,17,13.20
2018,06,16,07,18,13.30
2018,06,16,07,19,13.30
2018,06,16,07,20,13.40
2018,06,16,07,21,13.40
2018,06,16,07,22,13.40
2018,06,16,07,23,13.50
2018,06,16,07,24,13.50
2018,06,16,07,25,13.60
2018,06,16,07,26,13.60
2018,06,16,07,27,13.70
2018,06,16,07,28,13.70
2018,06,16,07,29,13.70
2018,06,16,07,30,13.70
2018,06,16,07,31,13.80
2018,06,16,07,32,13.80
2018,06,16,07,33,13.80
2018,06,16,07,34,13.80
2018,06,16,07,35,13.90
2018,06,16,07,36,13.90
2018,06,16,07,37,13.90
2018,06,16,07,38,14.00
2018,06,16,07,39,14.00
2018,06,16,07,40,14.10
2018,06,16,07,41,14.10
2018,06,16,07,42,14.10
2018,06,16,07,43,14.20
2018,06,16,07,44,14.20
2018,06,16,07,45,14.20
2018,06,16,07,46,14.30
2018,06,16,07,47,14.30
2018,06,16,07,48,14.30
2018,06,16,07,49,14.40
2018,06,16,07,50,14.40
2018,06,16,07,51,14.50
2018,06,16,07,52,14.50
2018,06,16,07,53,14.60
2018,06,16,07,54,14.60
2018,06,16,07,55,14.70
2018,06,16,07,56,14.70
2018,06,16,07,57,14.70
2018,06,16,07,58,14.80
2018,06,16,07,59,14.80
2018,06,16,08,00,14.90
2018,06,16,08,01,14.90
2018,06,16,08,02,14.90
2018,06,16,08,03,15.00
2018,06,16,08,04,15.00
2018,06,16,08,05,15.10
2018,06,16,08,06,15.10
2018,06,16,08,07,15.20
2018,06,16,08,08,15.30
2018,06,16,08,09,15.30
2018,06,16,08,10,15.40
2018,06,16,08,11,15.50
2018,06,16,08,12,15.60
2018,06,16,08,13,15.60
2018,06,16,08,14,15.70
2018,06,16,08,15,15.70
2018,06,16,08,16,15.70
2018,06,16,08,17,15.80
2018,06,16,08,18,15.80
2018,06,16,08,19,15.90
2018,06,16,08,20,15.90
2018,06,16,08,21,15.90
2018,06,16,08,22,15.90
2018,06,16,08,23,16.00
2018,06,16,08,24,16.00
2018,06,16,08,25,16.00
2018,06,16,08,26,16.10
2018,06,16,08,27,16.10
2018,06,16,08,28,16.10
2018,06,16,08,29,16.10
2018,06,16,08,30,16.20
2018,06,16,08,31,16.20
2018,06,16,08,32,16.20
2018,06,16,08,33,16.30
2018,06,16,08,34,16.30
2018,06,16,08,35,16.40
2018,06,16,08,36,16.50
2018,06,16,08,37,16.50
2018,06,16,08,38,16.60
2018,06,16,08,39,16.60
2018,06,16,08,40,16.70
2018,06,16,08,41,16.70
2018,06,16,08,42,16.70
2018,06,16,08,43,16.80
2018,06,16,08,44,16.80
2018,06,16,08,45,16.90
2018,06,16,08,46,16.90
2018,06,16,08,47,17.00
2018,06,16,08,48,17.00
2018,06,16,08,49,17.10
2018,06,16,08,50,17.20
2018,06,16,08,51,17.20
2018,06,16,08,52,17.30
2018,06,16,08,53,17.30
2018,06,16,08,54,17.40
2018,06,16,08,55,17.50
2018,06,16,08,56,17.50
2018,06,16,08,57,17.60
2018,06,16,08,58,17.70
2018,06,16,08,59,17.70
2018,06,16,09,00,17.80
2018,06,16,09,01,17.80
2018,06,16,09,02,17.80
2018,06,16,09,03,17.90
2018,06,16,09,04,18.00
2018,06,16,09,05,18.00
2018,06,16,09,06,18.10
2018,06,16,09,07,18.10
2018,06,16,09,08,18.20
2018,06,16,09,09,18.20
2018,06,16,09,10,18.30
2018,06,16,09,11,18.30
2018,06,16,09,12,18.40
2018,06,16,09,13,18.40
2018,06,16,09,14,18.40
2018,06,16,09,15,18.50
2018,06,16,09,16,18.50
2018,06,16,09,17,18.60
2018,06,16,09,18,18.60
2018,06,16,09,19,18.60
2018,06,16,09,20,18.70
2018,06,16,09,21,18.70
2018,06,16,09,22,18.70
2018,06,16,09,23,18.70
2018,06,16,09,24,18.80
2018,06,16,09,25,18.80
2018,06,16,09,26,18.80
2018,06,16,09,27,18.80
2018,06,16,09,28,18.80
2018,06,16,09,29,18.80
2018,06,16,09,30,18.90
2018,06,16,09,31,18.90
2018,06,16,09,32,18.90
2018,06,16,09,33,19.00
2018,06,16,09,34,19.10
2018,06,16,09,35,19.10
2018,06,16,09,36,19.20
2018,06,16,09,37,19.20
2018,06,16,09,38,19.20
2018,06,16,09,39,19.20
2018,06,16,09,40,19.20
2018,06,16,09,41,19.20
2018,06,16,09,42,19.20
2018,06,16,09,43,19.20
2018,06,16,09,44,19.30
2018,06,16,09,45,19.30
2018,06,16,09,46,19.40
2018,06,16,09,47,19.40
2018,06,16,09,48,19.40
2018,06,16,09,49,19.50
2018,06,16,09,50,19.50
2018,06,16,09,51,19.50
2018,06,16,09,52,19.50
2018,06,16,09,53,19.60
2018,06,16,09,54,19.60
2018,06,16,09,55,19.60
2018,06,16,09,56,19.70
2018,06,16,09,57,19.70
2018,06,16,09,58,19.80
2018,06,16,09,59,19.80
2018,06,16,10,00,19.90
2018,06,16,10,01,20.00
2018,06,16,10,02,20.00
2018,06,16,10,03,20.10
2018,06,16,10,04,20.10
2018,06,16,10,05,20.10
2018,06,16,10,06,20.10
2018,06,16,10,07,20.10
2018,06,16,10,08,20.10
2018,06,16,10,09,20.10
2018,06,16,10,10,20.10
2018,06,16,10,11,20.20
2018,06,16,10,12,20.10
2018,06,16,10,13,20.10
2018,06,16,10,14,20.10
2018,06,16,10,15,20.20
2018,06,16,10,16,20.20
2018,06,16,10,17,20.30
2018,06,16,10,18,20.30
2018,06,16,10,19,20.30
2018,06,16,10,20,20.30
2018,06,16,10,21,20.30
2018,06,16,10,22,20.30
2018,06,16,10,23,20.30
2018,06,16,10,24,20.40
2018,06,16,10,25,20.50
2018,06,16,10,26,20.50
2018,06,16,10,27,20.50
2018,06,16,10,28,20.60
2018,06,16,10,29,20.60
2018,06,16,10,30,20.60
2018,06,16,10,31,20.60
2018,06,16,10,32,20.60
2018,06,16,10,33,20.70
2018,06,16,10,34,20.70
2018,06,16,10,35,20.70
2018,06,16,10,36,20.80
2018,06,16,10,37,20.80
2018,06,16,10,38,20.90
2018,06,16,10,39,20.90
2018,06,16,10,40,20.90
2018,06,16,10,41,20.90
2018,06,16,10,42,20.90
2018,06,16,10,43,21.00
2018,06,16,10,44,21.00
2018,06,16,10,45,21.10
2018,06,16,10,46,21.10
2018,06,16,10,47,21.20
2018,06,16,10,48,21.30
2018,06,16,10,49,21.30
2018,06,16,10,50,21.40
2018,06,16,10,51,21.40
2018,06,16,10,52,21.50
2018,06,16,10,53,21.50
2018,06,16,10,54,21.50
2018,06,16,10,55,21.50
2018,06,16,10,56,21.60
2018,06,16,10,57,21.60
2018,06,16,10,58,21.60
2018,06,16,10,59,21.60
2018,06,16,11,00,21.70
2018,06,16,11,01,21.80
2018,06,16,11,02,21.80
2018,06,16,11,03,21.80
2018,06,16,11,04,21.90
2018,06,16,11,05,21.90
2018,06,16,11,06,21.90
2018,06,16,11,07,21.90
2018,06,16,11,08,22.00
2018,06,16,11,09,22.00
2018,06,16,11,10,22.00
2018,06,16,11,11,22.00
2018,06,16,11,12,22.00
2018,06,16,11,13,22.10
2018,06,16,11,14,22.10
2018,06,16,11,15,22.20
2018,06,16,11,16,22.20
2018,06,16,11,17,22.20
2018,06,16,11,18,22.30
2018,06,16,11,19,22.30
2018,06,16,11,20,22.30
2018,06,16,11,21,22.40
2018,06,16,11,22,22.40
2018,06,16,11,23,22.40
2018,06,16,11,24,22.50
2018,06,16,11,25,22.50
2018,06,16,11,26,22.50
2018,06,16,11,27,22.50
2018,06,16,11,28,22.40
2018,06,16,11,29,22.40
2018,06,16,11,30,22.40
2018,06,16,11,31,22.40
2018,06,16,11,32,22.40
2018,06,16,11,33,22.40
2018,06,16,11,34,22.40
2018,06,16,11,35,22.40
2018,06,16,11,36,22.50
2018,06,16,11,37,22.50
2018,06,16,11,38,22.50
2018,06,16,11,39,22.50
2018,06,16,11,40,22.40
2018,06,16,11,41,22.40
2018,06,16,11,42,22.40
2018,06,16,11,43,22.40
2018,06,16,11,44,22.40
2018,06,16,11,45,22.50
2018,06,16,11,46,22.50
2018,06,16,11,47,22.50
2018,06,16,11,48,22.60
2018,06,16,11,49,22.70
2018,06,16,11,50,22.80
2018,06,16,11,51,22.80
2018,06,16,11,52,22.80
2018,06,16,11,53,22.80
2018,06,16,11,54,22.80
2018,06,16,11,55,22.90
2018,06,16,11,56,22.90
2018,06,16,11,57,22.90
2018,06,16,11,58,22.90
2018,06,16,11,59,22.90
2018,06,16,12,00,22.90
2018,06,16,12,01,22.90
2018,06,16,12,02,22.90
2018,06,16,12,03,22.80
2018,06,16,12,04,22.90
2018,06,16,12,05,22.90
2018,06,16,12,06,22.90
2018,06,16,12,07,22.90
2018,06,16,12,08,23.00
2018,06,16,12,09,23.00
2018,06,16,12,10,23.10
2018,06,16,12,11,23.10
2018,06,16,12,12,23.20
2018,06,16,12,13,23.20
2018,06,16,12,14,23.20
2018,06,16,12,15,23.30
2018,06,16,12,16,23.30
2018,06,16,12,17,23.40
2018,06,16,12,18,23.40
2018,06,16,12,19,23.40
2018,06,16,12,20,23.50
2018,06,16,12,21,23.40
2018,06,16,12,22,23.40
2018,06,16,12,23,23.40
2018,06,16,12,24,23.50
2018,06,16,12,25,23.60
2018,06,16,12,26,23.50
2018,06,16,12,27,23.40
2018,06,16,12,28,23.40
2018,06,16,12,29,23.30
2018,06,16,12,30,23.40
2018,06,16,12,31,23.40
2018,06,16,12,32,23.50
2018,06,16,12,33,23.50
2018,06,16,12,34,23.60
2018,06,16,12,35,23.60
2018,06,16,12,36,23.60
2018,06,16,12,37,23.70
2018,06,16,12,38,23.70
2018,06,16,12,39,23.80
2018,06,16,12,40,23.80
2018,06,16,12,41,23.90
2018,06,16,12,42,23.90
2018,06,16,12,43,24.00
2018,06,16,12,44,24.10
2018,06,16,12,45,24.20
2018,06,16,12,46,24.20
2018,06,16,12,47,24.20
2018,06,16,12,48,24.30
2018,06,16,12,49,24.30
2018,06,16,12,50,24.30
2018,06,16,12,51,24.30
2018,06,16,12,52,24.40
2018,06,16,12,53,24.50
2018,06,16,12,54,24.50
2018,06,16,12,55,24.50
2018,06,16,12,56,24.60
2018,06,16,12,57,24.60
2018,06,16,12,58,24.70
2018,06,16,12,59,24.70
2018,06,16,13,00,24.70
2018,06,16,13,01,24.60
2018,06,16,13,02,24.60
2018,06,16,13,03,24.70
2018,06,16,13,04,24.70
2018,06,16,13,05,24.70
2018,06,16,13,06,24.70
2018,06,16,13,07,24.60
2018,06,16,13,08,24.60
2018,06,16,13,09,24.70
2018,06,16,13,10,24.70
2018,06,16,13,11,24.70
2018,06,16,13,12,24.70
2018,06,16,13,13,24.80
2018,06,16,13,14,24.80
2018,06,16,13,15,24.90
2018,06,16,13,16,25.00
2018,06,16,13,17,25.10
2018,06,16,13,18,25.10
2018,06,16,13,19,25.20
2018,06,16,13,20,25.20
2018,06,16,13,21,25.20
2018,06,16,13,22,25.30
2018,06,16,13,23,25.30
2018,06,16,13,24,25.40
2018,06,16,13,25,25.40
2018,06,16,13,26,25.50
2018,06,16,13,27,25.50
2018,06,16,13,28,25.40
2018,06,16,13,29,25.40
2018,06,16,13,30,25.30
2018,06,16,13,31,25.30
2018,06,16,13,32,25.20
2018,06,16,13,33,25.20
2018,06,16,13,34,25.20
2018,06,16,13,35,25.20
2018,06,16,13,36,25.20
2018,06,16,13,37,25.20
2018,06,16,13,38,25.20
2018,06,16,13,39,25.20
2018,06,16,13,40,25.30
2018,06,16,13,41,25.40
2018,06,16,13,42,25.40
2018,06,16,13,43,25.40
2018,06,16,13,44,25.40
2018,06,16,13,45,25.30
2018,06,16,13,46,25.30
2018,06,16,13,47,25.40
2018,06,16,13,48,25.40
2018,06,16,13,49,25.50
2018,06,16,13,50,25.50
2018,06,16,13,51,25.50
2018,06,16,13,52,25.50
2018,06,16,13,53,25.40
2018,06,16,13,54,25.40
2018,06,16,13,55,25.40
2018,06,16,13,56,25.50
2018,06,16,13,57,25.60
2018,06,16,13,58,25.60
2018,06,16,13,59,25.70
2018,06,16,14,00,25.70
2018,06,16,14,01,25.80
2018,06,16,14,02,25.80
2018,06,16,14,03,25.80
2018,06,16,14,04,25.80
2018,06,16,14,05,25.90
2018,06,16,14,06,25.90
2018,06,16,14,07,25.80
2018,06,16,14,08,25.80
2018,06,16,14,09,25.70
2018,06,16,14,10,25.60
2018,06,16,14,11,25.60
2018,06,16,14,12,25.60
2018,06,16,14,13,25.70
2018,06,16,14,14,25.80
2018,06,16,14,15,25.90
2018,06,16,14,16,25.90
2018,06,16,14,17,25.90
2018,06,16,14,18,25.90
2018,06,16,14,19,25.90
2018,06,16,14,20,25.90
2018,06,16,14,21,25.90
2018,06,16,14,22,25.90
2018,06,16,14,23,25.90
2018,06,16,14,24,25.90
2018,06,16,14,25,26.00
2018,06,16,14,26,26.10
2018,06,16,14,27,26.10
2018,06,16,14,28,26.00
2018,06,16,14,29,26.10
2018,06,16,14,30,26.10
2018,06,16,14,31,26.10
2018,06,16,14,32,26.20
2018,06,16,14,33,26.20
2018,06,16,14,34,26.30
2018,06,16,14,35,26.30
2018,06,16,14,36,26.30
2018,06,16,14,37,26.40
2018,06,16,14,38,26.40
2018,06,16,14,39,26.40
2018,06,16,14,40,26.50
2018,06,16,14,41,26.60
2018,06,16,14,42,26.60
2018,06,16,14,43,26.60
2018,06,16,14,44,26.60
2018,06,16,14,45,26.60
2018,06,16,14,46,26.50
2018,06,16,14,47,26.40
2018,06,16,14,48,26.40
2018,06,16,14,49,26.50
2018,06,16,14,50,26.50
2018,06,16,14,51,26.50
2018,06,16,14,52,26.50
2018,06,16,14,53,26.50
2018,06,16,14,54,26.60
2018,06,16,14,55,26.70
2018,06,16,14,56,26.70
2018,06,16,14,57,26.70
2018,06,16,14,58,26.80
2018,06,16,14,59,26.80
2018,06,16,15,00,26.80
2018,06,16,15,01,26.90
2018,06,16,15,02,26.90
2018,06,16,15,03,26.90
2018,06,16,15,04,27.00
2018,06,16,15,05,27.00
2018,06,16,15,06,27.00
2018,06,16,15,07,27.00
2018,06,16,15,08,27.10
2018,06,16,15,09,27.10
2018,06,16,15,10,27.10
2018,06,16,15,11,27.20
2018,06,16,15,12,27.20
2018,06,16,15,13,27.30
2018,06,16,15,14,27.40
2018,06,16,15,15,27.40
2018,06,16,15,16,27.30
2018,06,16,15,17,27.30
2018,06,16,15,18,27.30
2018,06,16,15,19,27.20
2018,06,16,15,20,27.00
2018,06,16,15,21,26.90
2018,06,16,15,22,26.90
2018,06,16,15,23,26.90
2018,06,16,15,24,26.90
2018,06,16,15,25,26.90
2018,06,16,15,26,27.00
2018,06,16,15,27,27.10
2018,06,16,15,28,27.20
2018,06,16,15,29,27.30
2018,06,16,15,30,27.30
2018,06,16,15,31,27.40
2018,06,16,15,32,27.40
2018,06,16,15,33,27.40
2018,06,16,15,34,27.30
2018,06,16,15,35,27.20
2018,06,16,15,36,27.20
2018,06,16,15,37,27.20
2018,06,16,15,38,27.20
2018,06,16,15,39,27.20
2018,06,16,15,40,27.20
2018,06,16,15,41,27.20
2018,06,16,15,42,27.20
2018,06,16,15,43,27.20
2018,06,16,15,44,27.20
2018,06,16,15,45,27.10
2018,06,16,15,46,27.10
2018,06,16,15,47,27.10
2018,06,16,15,48,27.20
2018,06,16,15,49,27.30
2018,06,16,15,50,27.30
2018,06,16,15,51,27.30
2018,06,16,15,52,27.40
2018,06,16,15,53,27.40
2018,06,16,15,54,27.40
2018,06,16,15,55,27.50
2018,06,16,15,56,27.50
2018,06,16,15,57,27.60
2018,06,16,15,58,27.60
2018,06,16,15,59,27.60
2018,06,16,16,00,27.50
2018,06,16,16,01,27.50
2018,06,16,16,02,27.50
2018,06,16,16,03,27.40
2018,06,16,16,04,27.40
2018,06,16,16,05,27.30
2018,06,16,16,06,27.30
2018,06,16,16,07,27.30
2018,06,16,16,08,27.30
2018,06,16,16,09,27.20
2018,06,16,16,10,27.20
2018,06,16,16,11,27.10
2018,06,16,16,12,27.10
2018,06,16,16,13,27.10
2018,06,16,16,14,27.10
2018,06,16,16,15,27.10
2018,06,16,16,16,27.20
2018,06,16,16,17,27.20
2018,06,16,16,18,27.20
2018,06,16,16,19,27.20
2018,06,16,16,20,27.20
2018,06,16,16,21,27.20
2018,06,16,16,22,27.30
2018,06,16,16,23,27.30
2018,06,16,16,24,27.30
2018,06,16,16,25,27.30
2018,06,16,16,26,27.30
2018,06,16,16,27,27.30
2018,06,16,16,28,27.30
2018,06,16,16,29,27.30
2018,06,16,16,30,27.30
2018,06,16,16,31,27.40
2018,06,16,16,32,27.40
2018,06,16,16,33,27.40
2018,06,16,16,34,27.40
2018,06,16,16,35,27.40
2018,06,16,16,36,27.40
2018,06,16,16,37,27.40
2018,06,16,16,38,27.30
2018,06,16,16,39,27.40
2018,06,16,16,40,27.40
2018,06,16,16,41,27.50
2018,06,16,16,42,27.50
2018,06,16,16,43,27.60
2018,06,16,16,44,27.60
2018,06,16,16,45,27.60
2018,06,16,16,46,27.70
2018,06,16,16,47,27.80
2018,06,16,16,48,27.80
2018,06,16,16,49,27.80
2018,06,16,16,50,27.80
2018,06,16,16,51,27.80
2018,06,16,16,52,27.80
2018,06,16,16,53,27.80
2018,06,16,16,54,27.80
2018,06,16,16,55,27.80
2018,06,16,16,56,27.80
2018,06,16,16,57,27.80
2018,06,16,16,58,27.80
2018,06,16,16,59,27.80
2018,06,16,17,00,27.80
2018,06,16,17,01,27.80
2018,06,16,17,02,27.80
2018,06,16,17,03,27.80
2018,06,16,17,04,27.80
2018,06,16,17,05,27.80
2018,06,16,17,06,27.70
2018,06,16,17,07,27.70
2018,06,16,17,08,27.70
2018,06,16,17,09,27.70
2018,06,16,17,10,27.80
2018,06,16,17,11,27.90
2018,06,16,17,12,27.90
2018,06,16,17,13,28.00
2018,06,16,17,14,28.00
2018,06,16,17,15,28.00
2018,06,16,17,16,28.00
2018,06,16,17,17,28.00
2018,06,16,17,18,28.00
2018,06,16,17,19,28.00